Weather History for Le Puy, France

Change the Weather History Date:

Sunday, January 13, 2013

  Actual Average Record
Temperature  
Mean Temperature 34 °F -  
Max Temperature 37 °F - - ()
Min Temperature 32 °F - - ()
Degree Days  
Heating Degree Days 30    
Moisture  
Dew Point 33 °F    
Average Humidity 97    
Maximum Humidity 100    
Minimum Humidity 87    
Precipitation  
Precipitation 0.04 in - - ()
Sea Level Pressure  
Sea Level Pressure 29.79 in    
Wind  
Wind Speed 2 mph ()    
Max Wind Speed 12 mph    
Max Gust Speed -    
Visibility 4.7 miles    
Events Rain , Snow    
T = Trace of Precipitation, MM = Missing Value Source: Averaged Metar Reports

Daily Weather History Graph

Daily Weather History Graph

Search for Another Location

Airport:

Trip Planner

Search our weather history database for the weather conditions in past years. The results will help you decide how hot, cold, wet, or windy it might be!

Date:

Astronomy

Jan. 13, 2013 Rise Set
Actual Time 8:20 AM CET 5:26 PM CET
Civil Twilight 7:47 AM CET 5:59 PM CET
Nautical Twilight 7:11 AM CET 6:36 PM CET
Astronomical Twilight 6:36 AM CET 7:11 PM CET
Moon 9:02 AM CET (1/13) 7:55 PM CET (1/13)
Length of Visible Light 10h 11m
Length of Day
9h 06m
Waxing Crescent, 4% of the Moon is Illuminated
Jan 13
Waxing Crescent
Jan 19
First Quarter
Jan 27
Full
Feb 3
Last Quarter
Feb 10
New

Hourly Weather History & Observations

Time (CET) Temp. Windchill Dew Point Humidity Pressure Visibility Wind Dir Wind Speed Gust Speed Precip Events Conditions
12:00 AM 33.8 °F - 32.0 °F 93% 29.83 in - Calm Calm - N/A   Mostly Cloudy
12:30 AM 32.0 °F - 32.0 °F 100% 29.83 in 1.3 mi NNE 2.3 mph - N/A Rain Light Rain
1:00 AM 33 °F - 33 °F 98%  in 1 mi Calm Calm - - Snow Light Snow
1:00 AM 33.8 °F - 32.0 °F 93% 29.80 in 1.5 mi Calm Calm - N/A Rain Rain
1:30 AM 33.8 °F - 32.0 °F 93% 29.80 in 3.1 mi Calm Calm - N/A   Mostly Cloudy
2:00 AM 33.8 °F - 33.8 °F 100% 29.80 in - Calm Calm - N/A Rain Light Rain
2:30 AM 32.0 °F - 32.0 °F 100% 29.80 in - Calm Calm - N/A   Mostly Cloudy
3:30 AM 33.8 °F - 33.8 °F 100% 29.80 in - SW 1.2 mph - N/A   Overcast
4:00 AM 33.8 °F - 33.8 °F 100% 29.77 in 3.1 mi Variable 2.3 mph - N/A   Mostly Cloudy
4:30 AM 33.8 °F - 33.8 °F 100% 29.77 in 3.7 mi West 2.3 mph - N/A   Overcast
5:00 AM 33.8 °F - 33.8 °F 100% 29.77 in 5.6 mi Variable 2.3 mph - N/A   Overcast
5:30 AM 32.0 °F - 32.0 °F 100% 29.77 in - Calm Calm - N/A   Overcast
6:00 AM 32.0 °F - 32.0 °F 100% 29.77 in - Calm Calm - N/A   Mostly Cloudy
6:30 AM 32.0 °F - 32.0 °F 100% 29.74 in - Calm Calm - N/A   Overcast
7:00 AM 32.0 °F - 32.0 °F 100% 29.74 in - Calm Calm - N/A   Overcast
7:30 AM 32.0 °F - 32.0 °F 100% 29.77 in - Calm Calm - N/A   Overcast
8:00 AM 33.8 °F - 33.8 °F 100% 29.77 in 1.7 mi Calm Calm - N/A   Light Drizzle
8:30 AM 33.8 °F - 33.8 °F 100% 29.77 in 3.1 mi Calm Calm - N/A   Light Drizzle
9:00 AM 33.8 °F - 33.8 °F 100% 29.77 in 3.1 mi Calm Calm - N/A   Overcast
9:30 AM 33.8 °F - 33.8 °F 100% 29.77 in 1.7 mi Calm Calm - N/A Rain Rain
10:30 AM 33.8 °F - 33.8 °F 100% 29.77 in 4.3 mi Calm Calm - N/A   Overcast
11:00 AM 35.6 °F - 35.6 °F 100% 29.77 in 6.2 mi Variable 2.3 mph - N/A   Overcast
11:30 AM 35.6 °F 32.8 °F 33.8 °F 93% 29.77 in 6.2 mi Variable 3.5 mph - N/A   Overcast
12:00 PM 35.6 °F 30.7 °F 35.6 °F 100% 29.77 in 6.2 mi North 5.8 mph - N/A   Overcast
12:30 PM 35.6 °F 29.9 °F 35.6 °F 100% 29.77 in 6.2 mi North 6.9 mph - N/A   Overcast
1:00 PM 35.6 °F 31.7 °F 35.6 °F 100% 29.77 in 6.2 mi NNE 4.6 mph - N/A   Overcast
1:30 PM 37.4 °F 32.8 °F 33.8 °F 87% 29.77 in 6.2 mi NNW 5.8 mph - N/A   Overcast
2:00 PM 35.6 °F 30.7 °F 33.8 °F 93% 29.77 in 6.2 mi North 5.8 mph - N/A Rain , Snow Light Snow
2:30 PM 35.6 °F 31.7 °F 33.8 °F 93% 29.77 in 6.2 mi ENE 4.6 mph - N/A   Overcast
3:00 PM 35.6 °F 30.7 °F 33.8 °F 93% 29.77 in 6.2 mi ENE 5.8 mph - N/A   Overcast
3:30 PM 33.8 °F 28.6 °F 32.0 °F 93% 29.77 in 0.7 mi North 5.8 mph - N/A Rain Rain
4:00 PM 33.8 °F - 33.8 °F 100% 29.77 in 6.2 mi Calm Calm - N/A   Mostly Cloudy
4:30 PM 33.8 °F 30.8 °F 33.8 °F 100% 29.77 in 6.2 mi North 3.5 mph - N/A   Mostly Cloudy
5:00 PM 33.8 °F 27.0 °F 33.8 °F 100% 29.77 in - NNW 8.1 mph - N/A Rain Light Rain
5:30 PM 33.8 °F 27.0 °F 33.8 °F 100% 29.80 in 4.3 mi NNW 8.1 mph - N/A Snow Light Snow
6:00 PM 33.8 °F 29.6 °F 33.8 °F 100% 29.80 in 6.2 mi NNW 4.6 mph - N/A   Mostly Cloudy
6:30 PM 33.8 °F 27.7 °F 33.8 °F 100% 29.80 in 6.2 mi NNW 6.9 mph - N/A   Mostly Cloudy
7:00 PM 33 °F - 33 °F 97%  in 3 mi NNW 3.5 mph - - Snow Light Snow
7:00 PM 32.0 °F 28.7 °F 32.0 °F 100% 29.80 in 6.2 mi NNW 3.5 mph - N/A Snow Light Snow
7:30 PM 33.8 °F 30.8 °F 32.0 °F 93% 29.80 in 3.7 mi NNW 3.5 mph - N/A   Overcast
8:00 PM 33.8 °F 29.6 °F 32.0 °F 93% 29.80 in 4.3 mi NNW 4.6 mph - N/A   Overcast
8:30 PM 33.8 °F 29.6 °F 32.0 °F 93% 29.80 in 5.6 mi North 4.6 mph - N/A   Overcast
9:00 PM 33.8 °F 27.7 °F 30.2 °F 87% 29.80 in 6.2 mi NW 6.9 mph - N/A   Overcast
9:30 PM 33.8 °F 27.0 °F 30.2 °F 87% 29.80 in 6.2 mi NW 8.1 mph - N/A   Mostly Cloudy
10:00 PM 33.8 °F 27.7 °F 32.0 °F 93% 29.83 in 6.2 mi NW 6.9 mph - N/A   Scattered Clouds
10:30 PM 33.8 °F 26.4 °F 30.2 °F 87% 29.83 in 6.2 mi NW 9.2 mph - N/A   Mostly Cloudy
11:00 PM 33.8 °F 25.3 °F 30.2 °F 87% 29.83 in 6.2 mi NW 11.5 mph - N/A   Mostly Cloudy
11:30 PM 33.8 °F 25.3 °F 30.2 °F 87% 29.83 in 6.2 mi NW 11.5 mph - N/A   Partly Cloudy